TimeEDT,TemperatureF,Dew PointF,Humidity,Sea Level PressureIn,VisibilityMPH,Wind Direction,Wind SpeedMPH,Gust SpeedMPH,PrecipitationIn,Events,Conditions,WindDirDegrees,DateUTC
12:53 AM,41.0,37.9,89,29.98,10.0,Calm,Calm,-,N/A,,Clear,0,2012-10-10 04:53:00
1:53 AM,41.0,37.9,89,29.97,10.0,Calm,Calm,-,N/A,,Clear,0,2012-10-10 05:53:00
2:53 AM,43.0,39.0,86,29.97,10.0,Calm,Calm,-,N/A,,Clear,0,2012-10-10 06:53:00
3:53 AM,51.1,42.1,71,29.95,10.0,SW,5.8,-,N/A,,Scattered Clouds,220,2012-10-10 07:53:00
4:53 AM,51.1,42.1,71,29.94,10.0,SW,6.9,-,N/A,,Mostly Cloudy,220,2012-10-10 08:53:00
5:53 AM,48.9,42.1,77,29.94,10.0,SW,3.5,-,N/A,,Scattered Clouds,230,2012-10-10 09:53:00
6:53 AM,50.0,43.0,77,29.98,10.0,West,4.6,-,N/A,,Overcast,260,2012-10-10 10:53:00
7:32 AM,50.0,42.8,76,29.99,10.0,West,6.9,-,N/A,,Overcast,260,2012-10-10 11:32:00
7:53 AM,48.9,44.1,83,30.01,10.0,WSW,6.9,-,0.00,Rain,Light Rain,250,2012-10-10 11:53:00
8:30 AM,48.2,42.8,82,30.02,10.0,WNW,11.5,-,0.00,,Overcast,300,2012-10-10 12:30:00
8:53 AM,48.0,43.0,83,30.04,10.0,WNW,8.1,-,0.00,,Mostly Cloudy,290,2012-10-10 12:53:00
9:41 AM,48.2,41.0,76,30.06,10.0,WNW,17.3,20.7,N/A,,Mostly Cloudy,300,2012-10-10 13:41:00
9:53 AM,48.9,39.9,71,30.07,10.0,WNW,13.8,-,N/A,,Mostly Cloudy,300,2012-10-10 13:53:00
10:53 AM,52.0,37.9,59,30.09,10.0,WNW,9.2,19.6,N/A,,Mostly Cloudy,290,2012-10-10 14:53:00
11:53 AM,53.1,36.0,52,30.11,10.0,NW,16.1,20.7,N/A,,Scattered Clouds,310,2012-10-10 15:53:00
12:53 PM,54.0,35.1,49,30.12,10.0,West,10.4,21.9,N/A,,Partly Cloudy,280,2012-10-10 16:53:00
1:53 PM,57.0,35.1,44,30.11,10.0,West,12.7,23.0,N/A,,Partly Cloudy,280,2012-10-10 17:53:00
2:53 PM,55.9,33.1,42,30.11,10.0,WNW,15.0,21.9,N/A,,Clear,290,2012-10-10 18:53:00
3:53 PM,57.0,35.1,44,30.12,10.0,WNW,17.3,25.3,N/A,,Mostly Cloudy,300,2012-10-10 19:53:00
4:53 PM,54.0,33.1,45,30.14,10.0,WNW,12.7,23.0,N/A,,Partly Cloudy,300,2012-10-10 20:53:00
5:53 PM,53.1,30.0,41,30.17,10.0,West,10.4,19.6,N/A,,Clear,280,2012-10-10 21:53:00
6:53 PM,50.0,28.9,44,30.18,10.0,WNW,5.8,-,N/A,,Clear,290,2012-10-10 22:53:00
7:53 PM,46.0,28.0,50,30.21,10.0,WNW,4.6,-,N/A,,Clear,290,2012-10-10 23:53:00
8:53 PM,37.9,30.9,76,30.25,10.0,Calm,Calm,-,N/A,,Clear,0,2012-10-11 00:53:00
9:53 PM,35.1,30.0,82,30.26,10.0,Calm,Calm,-,N/A,,Clear,0,2012-10-11 01:53:00
10:53 PM,33.1,30.0,89,30.27,10.0,Calm,Calm,-,N/A,,Clear,0,2012-10-11 02:53:00
11:53 PM,32.0,28.9,88,30.28,10.0,Calm,Calm,-,N/A,,Clear,0,2012-10-11 03:53:00